owner,sensor,date,latitude,longitude,vertical_datum,mass_concentration_of_oxygen_in_sea_water,qcFlag 
SCCF RECON,ioos:station:SCCF:13:1,2014-12-01T00:00:00Z,26.5255,-82.0032,1.0,-9999.0,1111122 
SCCF RECON,ioos:station:SCCF:13:1,2014-12-01T01:00:00Z,26.5255,-82.0032,1.0,-9999.0,1111122 
SCCF RECON,ioos:station:SCCF:13:1,2014-12-01T02:00:00Z,26.5255,-82.0032,1.0,-9999.0,1111122 
SCCF RECON,ioos:station:SCCF:13:1,2014-12-01T03:00:00Z,26.5255,-82.0032,1.0,-9999.0,1111122 
SCCF RECON,ioos:station:SCCF:13:1,2014-12-01T04:00:00Z,26.5255,-82.0032,1.0,-9999.0,1111122 
SCCF RECON,ioos:station:SCCF:13:1,2014-12-01T05:00:00Z,26.5255,-82.0032,1.0,-9999.0,1111122 
SCCF RECON,ioos:station:SCCF:13:1,2014-12-01T06:00:00Z,26.5255,-82.0032,1.0,-9999.0,1111122 
SCCF RECON,ioos:station:SCCF:13:1,2014-12-01T07:00:00Z,26.5255,-82.0032,1.0,-9999.0,1111122 
SCCF RECON,ioos:station:SCCF:13:1,2014-12-01T08:00:00Z,26.5255,-82.0032,1.0,-9999.0,1111122 
SCCF RECON,ioos:station:SCCF:13:1,2014-12-01T09:00:00Z,26.5255,-82.0032,1.0,-9999.0,1111122 
SCCF RECON,ioos:station:SCCF:13:1,2014-12-01T10:00:00Z,26.5255,-82.0032,1.0,-9999.0,1111122 
SCCF RECON,ioos:station:SCCF:13:1,2014-12-01T11:00:00Z,26.5255,-82.0032,1.0,-9999.0,1111122 
SCCF RECON,ioos:station:SCCF:13:1,2014-12-01T12:00:00Z,26.5255,-82.0032,1.0,-9999.0,1111122 
SCCF RECON,ioos:station:SCCF:13:1,2014-12-01T13:00:00Z,26.5255,-82.0032,1.0,-9999.0,1111122 
SCCF RECON,ioos:station:SCCF:13:1,2014-12-01T14:00:00Z,26.5255,-82.0032,1.0,-9999.0,1111122 
SCCF RECON,ioos:station:SCCF:13:1,2014-12-01T15:00:00Z,26.5255,-82.0032,1.0,-9999.0,1111122 
SCCF RECON,ioos:station:SCCF:13:1,2014-12-01T16:00:00Z,26.5255,-82.0032,1.0,-9999.0,1111122 
SCCF RECON,ioos:station:SCCF:13:1,2014-12-01T17:00:00Z,26.5255,-82.0032,1.0,-9999.0,1111122 
SCCF RECON,ioos:station:SCCF:13:1,2014-12-01T18:00:00Z,26.5255,-82.0032,1.0,-9999.0,1111122 
SCCF RECON,ioos:station:SCCF:13:1,2014-12-01T19:00:00Z,26.5255,-82.0032,1.0,-9999.0,1111122 
SCCF RECON,ioos:station:SCCF:13:1,2014-12-01T20:00:00Z,26.5255,-82.0032,1.0,-9999.0,1111122 
SCCF RECON,ioos:station:SCCF:13:1,2014-12-01T21:00:00Z,26.5255,-82.0032,1.0,-9999.0,1111122 
SCCF RECON,ioos:station:SCCF:13:1,2014-12-01T22:00:00Z,26.5255,-82.0032,1.0,-9999.0,1111122 
SCCF RECON,ioos:station:SCCF:13:1,2014-12-01T23:00:00Z,26.5255,-82.0032,1.0,-9999.0,1111122 
SCCF RECON,ioos:station:SCCF:13:1,2014-12-02T00:00:00Z,26.5255,-82.0032,1.0,-9999.0,1111122 
SCCF RECON,ioos:station:SCCF:13:1,2014-12-02T01:00:00Z,26.5255,-82.0032,1.0,-9999.0,1111122 
SCCF RECON,ioos:station:SCCF:13:1,2014-12-02T02:00:00Z,26.5255,-82.0032,1.0,-9999.0,1111122 
SCCF RECON,ioos:station:SCCF:13:1,2014-12-02T03:00:00Z,26.5255,-82.0032,1.0,-9999.0,1111122 
SCCF RECON,ioos:station:SCCF:13:1,2014-12-02T04:00:00Z,26.5255,-82.0032,1.0,-9999.0,1111122 
SCCF RECON,ioos:station:SCCF:13:1,2014-12-02T05:00:00Z,26.5255,-82.0032,1.0,-9999.0,1111122 
SCCF RECON,ioos:station:SCCF:13:1,2014-12-02T06:00:00Z,26.5255,-82.0032,1.0,-9999.0,1111122 
SCCF RECON,ioos:station:SCCF:13:1,2014-12-02T07:00:00Z,26.5255,-82.0032,1.0,-9999.0,1111122 
SCCF RECON,ioos:station:SCCF:13:1,2014-12-02T08:00:00Z,26.5255,-82.0032,1.0,-9999.0,1111122 
SCCF RECON,ioos:station:SCCF:13:1,2014-12-02T09:00:00Z,26.5255,-82.0032,1.0,-9999.0,1111122 
SCCF RECON,ioos:station:SCCF:13:1,2014-12-02T10:00:00Z,26.5255,-82.0032,1.0,-9999.0,1111122 
SCCF RECON,ioos:station:SCCF:13:1,2014-12-02T11:00:00Z,26.5255,-82.0032,1.0,-9999.0,1111122 
SCCF RECON,ioos:station:SCCF:13:1,2014-12-02T12:00:00Z,26.5255,-82.0032,1.0,-9999.0,1111122 
SCCF RECON,ioos:station:SCCF:13:1,2014-12-02T13:00:00Z,26.5255,-82.0032,1.0,-9999.0,1111122 
SCCF RECON,ioos:station:SCCF:13:1,2014-12-02T14:00:00Z,26.5255,-82.0032,1.0,-9999.0,1111122 
SCCF RECON,ioos:station:SCCF:13:1,2014-12-02T15:00:00Z,26.5255,-82.0032,1.0,-9999.0,1111122 
SCCF RECON,ioos:station:SCCF:13:1,2014-12-02T17:00:00Z,26.5255,-82.0032,2.78,8.02,1111122 
SCCF RECON,ioos:station:SCCF:13:1,2014-12-02T18:00:00Z,26.5255,-82.0032,2.702,7.99,1111122 
SCCF RECON,ioos:station:SCCF:13:1,2014-12-02T19:00:00Z,26.5255,-82.0032,2.63,7.82,1111122 
SCCF RECON,ioos:station:SCCF:13:1,2014-12-02T20:00:00Z,26.5255,-82.0032,2.56,7.96,1111122 
SCCF RECON,ioos:station:SCCF:13:1,2014-12-02T21:00:00Z,26.5255,-82.0032,2.537,8.02,1111122 
SCCF RECON,ioos:station:SCCF:13:1,2014-12-02T22:00:00Z,26.5255,-82.0032,2.596,8.04,1111122 
SCCF RECON,ioos:station:SCCF:13:1,2014-12-02T23:00:00Z,26.5255,-82.0032,2.68,7.29,1111122 
SCCF RECON,ioos:station:SCCF:13:1,2014-12-03T00:00:00Z,26.5255,-82.0032,2.79,7.88,1111122 
SCCF RECON,ioos:station:SCCF:13:1,2014-12-03T01:00:00Z,26.5255,-82.0032,2.854,8.13,1111122 
SCCF RECON,ioos:station:SCCF:13:1,2014-12-03T02:00:00Z,26.5255,-82.0032,2.918,8.0,1111122 
SCCF RECON,ioos:station:SCCF:13:1,2014-12-03T03:00:00Z,26.5255,-82.0032,2.952,8.22,1111122 
SCCF RECON,ioos:station:SCCF:13:1,2014-12-03T04:00:00Z,26.5255,-82.0032,2.96,8.02,1111122 
SCCF RECON,ioos:station:SCCF:13:1,2014-12-03T05:00:00Z,26.5255,-82.0032,2.881,7.85,1111122 
SCCF RECON,ioos:station:SCCF:13:1,2014-12-03T06:00:00Z,26.5255,-82.0032,2.76,7.72,1111122 
SCCF RECON,ioos:station:SCCF:13:1,2014-12-03T07:00:00Z,26.5255,-82.0032,2.62,7.67,1111122 
SCCF RECON,ioos:station:SCCF:13:1,2014-12-03T08:00:00Z,26.5255,-82.0032,2.51,7.7,1111122 
SCCF RECON,ioos:station:SCCF:13:1,2014-12-03T09:00:00Z,26.5255,-82.0032,2.41,7.68,1111122 
SCCF RECON,ioos:station:SCCF:13:1,2014-12-03T10:00:00Z,26.5255,-82.0032,2.33,7.61,1111122 
SCCF RECON,ioos:station:SCCF:13:1,2014-12-03T11:00:00Z,26.5255,-82.0032,2.33,7.59,1111122 
SCCF RECON,ioos:station:SCCF:13:1,2014-12-03T12:00:00Z,26.5255,-82.0032,2.46,7.63,1111122 
SCCF RECON,ioos:station:SCCF:13:1,2014-12-03T13:00:00Z,26.5255,-82.0032,2.588,7.58,1111122 
SCCF RECON,ioos:station:SCCF:13:1,2014-12-03T14:00:00Z,26.5255,-82.0032,2.65,7.15,1111122 
SCCF RECON,ioos:station:SCCF:13:1,2014-12-03T15:00:00Z,26.5255,-82.0032,2.7,7.33,1111122 
SCCF RECON,ioos:station:SCCF:13:1,2014-12-03T16:00:00Z,26.5255,-82.0032,2.758,7.41,1111122 
SCCF RECON,ioos:station:SCCF:13:1,2014-12-03T17:00:00Z,26.5255,-82.0032,2.772,7.69,1111122 
SCCF RECON,ioos:station:SCCF:13:1,2014-12-03T18:00:00Z,26.5255,-82.0032,2.733,7.92,1111122 
SCCF RECON,ioos:station:SCCF:13:1,2014-12-03T19:00:00Z,26.5255,-82.0032,2.665,7.61,1111122 
SCCF RECON,ioos:station:SCCF:13:1,2014-12-03T20:00:00Z,26.5255,-82.0032,2.6,7.5,1111122 
SCCF RECON,ioos:station:SCCF:13:1,2014-12-03T21:00:00Z,26.5255,-82.0032,2.53,7.72,1111122 
SCCF RECON,ioos:station:SCCF:13:1,2014-12-03T22:00:00Z,26.5255,-82.0032,2.502,8.1,1111122 
SCCF RECON,ioos:station:SCCF:13:1,2014-12-03T23:00:00Z,26.5255,-82.0032,2.568,8.05,1111122 
SCCF RECON,ioos:station:SCCF:13:1,2014-12-04T00:00:00Z,26.5255,-82.0032,2.7,7.53,1111122 
SCCF RECON,ioos:station:SCCF:13:1,2014-12-04T01:00:00Z,26.5255,-82.0032,2.81,7.76,1111122 
SCCF RECON,ioos:station:SCCF:13:1,2014-12-04T02:00:00Z,26.5255,-82.0032,2.87,7.83,1111122 
SCCF RECON,ioos:station:SCCF:13:1,2014-12-04T03:00:00Z,26.5255,-82.0032,2.929,7.79,1111122 
SCCF RECON,ioos:station:SCCF:13:1,2014-12-04T04:00:00Z,26.5255,-82.0032,2.95,7.87,1111122 
SCCF RECON,ioos:station:SCCF:13:1,2014-12-04T05:00:00Z,26.5255,-82.0032,2.918,7.69,1111122 
SCCF RECON,ioos:station:SCCF:13:1,2014-12-04T06:00:00Z,26.5255,-82.0032,2.8,7.56,1111122 
SCCF RECON,ioos:station:SCCF:13:1,2014-12-04T07:00:00Z,26.5255,-82.0032,2.66,7.43,1111122 
SCCF RECON,ioos:station:SCCF:13:1,2014-12-04T08:00:00Z,26.5255,-82.0032,2.55,7.48,1111122 
SCCF RECON,ioos:station:SCCF:13:1,2014-12-04T09:00:00Z,26.5255,-82.0032,2.45,7.52,1111122 
SCCF RECON,ioos:station:SCCF:13:1,2014-12-04T10:00:00Z,26.5255,-82.0032,2.35,7.54,1111122 
SCCF RECON,ioos:station:SCCF:13:1,2014-12-04T11:00:00Z,26.5255,-82.0032,2.28,7.48,1111122 
SCCF RECON,ioos:station:SCCF:13:1,2014-12-04T12:00:00Z,26.5255,-82.0032,2.28,7.47,1111122 
SCCF RECON,ioos:station:SCCF:13:1,2014-12-04T13:00:00Z,26.5255,-82.0032,2.43,7.54,1111122 
SCCF RECON,ioos:station:SCCF:13:1,2014-12-04T14:00:00Z,26.5255,-82.0032,2.56,7.56,1111122 
SCCF RECON,ioos:station:SCCF:13:1,2014-12-04T15:00:00Z,26.5255,-82.0032,2.63,7.04,1111122 
SCCF RECON,ioos:station:SCCF:13:1,2014-12-04T16:00:00Z,26.5255,-82.0032,2.68,7.27,1111122 
SCCF RECON,ioos:station:SCCF:13:1,2014-12-04T17:00:00Z,26.5255,-82.0032,2.718,7.21,1111122 
SCCF RECON,ioos:station:SCCF:13:1,2014-12-04T18:00:00Z,26.5255,-82.0032,2.7,7.49,1111122 
SCCF RECON,ioos:station:SCCF:13:1,2014-12-04T19:00:00Z,26.5255,-82.0032,2.655,7.6,1111122 
SCCF RECON,ioos:station:SCCF:13:1,2014-12-04T20:00:00Z,26.5255,-82.0032,2.61,7.31,1111122 
SCCF RECON,ioos:station:SCCF:13:1,2014-12-04T21:00:00Z,26.5255,-82.0032,2.561,7.22,1111122 
SCCF RECON,ioos:station:SCCF:13:1,2014-12-04T22:00:00Z,26.5255,-82.0032,2.51,7.26,1111122 
SCCF RECON,ioos:station:SCCF:13:1,2014-12-04T23:00:00Z,26.5255,-82.0032,2.487,7.77,1111122 
SCCF RECON,ioos:station:SCCF:13:1,2014-12-05T00:00:00Z,26.5255,-82.0032,2.58,7.61,1111122 
SCCF RECON,ioos:station:SCCF:13:1,2014-12-05T01:00:00Z,26.5255,-82.0032,2.709,7.09,1111122 
SCCF RECON,ioos:station:SCCF:13:1,2014-12-05T02:00:00Z,26.5255,-82.0032,2.818,7.34,1111122 
SCCF RECON,ioos:station:SCCF:13:1,2014-12-05T03:00:00Z,26.5255,-82.0032,2.872,7.35,1111122 
SCCF RECON,ioos:station:SCCF:13:1,2014-12-05T04:00:00Z,26.5255,-82.0032,2.92,7.4,1111122 
SCCF RECON,ioos:station:SCCF:13:1,2014-12-05T05:00:00Z,26.5255,-82.0032,2.93,7.28,1111122 
SCCF RECON,ioos:station:SCCF:13:1,2014-12-05T06:00:00Z,26.5255,-82.0032,2.865,7.2,1111122 
SCCF RECON,ioos:station:SCCF:13:1,2014-12-05T07:00:00Z,26.5255,-82.0032,2.74,7.08,1111122 
SCCF RECON,ioos:station:SCCF:13:1,2014-12-05T08:00:00Z,26.5255,-82.0032,2.609,6.98,1111122 
SCCF RECON,ioos:station:SCCF:13:1,2014-12-05T09:00:00Z,26.5255,-82.0032,2.501,7.22,1111122 
SCCF RECON,ioos:station:SCCF:13:1,2014-12-05T10:00:00Z,26.5255,-82.0032,2.406,7.23,1111122 
SCCF RECON,ioos:station:SCCF:13:1,2014-12-05T11:00:00Z,26.5255,-82.0032,2.312,7.24,1111122 
SCCF RECON,ioos:station:SCCF:13:1,2014-12-05T12:00:00Z,26.5255,-82.0032,2.27,7.21,1111122 
SCCF RECON,ioos:station:SCCF:13:1,2014-12-05T13:00:00Z,26.5255,-82.0032,2.37,7.23,1111122 
SCCF RECON,ioos:station:SCCF:13:1,2014-12-05T14:00:00Z,26.5255,-82.0032,2.52,7.31,1111122 
SCCF RECON,ioos:station:SCCF:13:1,2014-12-05T15:00:00Z,26.5255,-82.0032,2.614,6.73,1111122 
SCCF RECON,ioos:station:SCCF:13:1,2014-12-05T16:00:00Z,26.5255,-82.0032,2.681,6.88,1111122 
SCCF RECON,ioos:station:SCCF:13:1,2014-12-05T17:00:00Z,26.5255,-82.0032,2.758,6.88,1111122 
SCCF RECON,ioos:station:SCCF:13:1,2014-12-05T18:00:00Z,26.5255,-82.0032,2.801,7.02,1111122 
SCCF RECON,ioos:station:SCCF:13:1,2014-12-05T19:00:00Z,26.5255,-82.0032,2.809,7.14,1111122 
SCCF RECON,ioos:station:SCCF:13:1,2014-12-05T20:00:00Z,26.5255,-82.0032,2.76,7.1,1111122 
SCCF RECON,ioos:station:SCCF:13:1,2014-12-05T21:00:00Z,26.5255,-82.0032,2.7,7.03,1111122 
SCCF RECON,ioos:station:SCCF:13:1,2014-12-05T22:00:00Z,26.5255,-82.0032,2.66,6.82,1111122 
SCCF RECON,ioos:station:SCCF:13:1,2014-12-05T23:00:00Z,26.5255,-82.0032,2.639,6.73,1111122 
SCCF RECON,ioos:station:SCCF:13:1,2014-12-06T00:00:00Z,26.5255,-82.0032,2.67,6.72,1111122 
SCCF RECON,ioos:station:SCCF:13:1,2014-12-06T01:00:00Z,26.5255,-82.0032,2.779,6.55,1111122 
SCCF RECON,ioos:station:SCCF:13:1,2014-12-06T02:00:00Z,26.5255,-82.0032,2.88,6.7,1111122 
SCCF RECON,ioos:station:SCCF:13:1,2014-12-06T03:00:00Z,26.5255,-82.0032,2.95,6.84,1111122 
SCCF RECON,ioos:station:SCCF:13:1,2014-12-06T04:00:00Z,26.5255,-82.0032,2.992,6.94,1111122 
SCCF RECON,ioos:station:SCCF:13:1,2014-12-06T05:00:00Z,26.5255,-82.0032,3.019,6.79,1111122 
SCCF RECON,ioos:station:SCCF:13:1,2014-12-06T06:00:00Z,26.5255,-82.0032,2.993,6.84,1111122 
SCCF RECON,ioos:station:SCCF:13:1,2014-12-06T07:00:00Z,26.5255,-82.0032,2.9,6.82,1111122 
SCCF RECON,ioos:station:SCCF:13:1,2014-12-06T08:00:00Z,26.5255,-82.0032,2.759,6.61,1111122 
SCCF RECON,ioos:station:SCCF:13:1,2014-12-06T09:00:00Z,26.5255,-82.0032,2.639,6.66,1111122 
SCCF RECON,ioos:station:SCCF:13:1,2014-12-06T10:00:00Z,26.5255,-82.0032,2.55,6.67,1111122 
SCCF RECON,ioos:station:SCCF:13:1,2014-12-06T11:00:00Z,26.5255,-82.0032,2.443,6.62,1111122 
SCCF RECON,ioos:station:SCCF:13:1,2014-12-06T12:00:00Z,26.5255,-82.0032,2.354,6.6,1111122 
SCCF RECON,ioos:station:SCCF:13:1,2014-12-06T13:00:00Z,26.5255,-82.0032,2.31,6.67,1111122 
SCCF RECON,ioos:station:SCCF:13:1,2014-12-06T14:00:00Z,26.5255,-82.0032,2.39,6.77,1111122 
SCCF RECON,ioos:station:SCCF:13:1,2014-12-06T15:00:00Z,26.5255,-82.0032,2.545,6.91,1111122 
SCCF RECON,ioos:station:SCCF:13:1,2014-12-06T16:00:00Z,26.5255,-82.0032,2.641,6.59,1111122 
SCCF RECON,ioos:station:SCCF:13:1,2014-12-06T17:00:00Z,26.5255,-82.0032,2.7,6.51,1111122 
SCCF RECON,ioos:station:SCCF:13:1,2014-12-06T18:00:00Z,26.5255,-82.0032,2.74,6.53,1111122 
SCCF RECON,ioos:station:SCCF:13:1,2014-12-06T19:00:00Z,26.5255,-82.0032,2.758,6.79,1111122 
SCCF RECON,ioos:station:SCCF:13:1,2014-12-06T20:00:00Z,26.5255,-82.0032,2.738,6.83,1111122 
SCCF RECON,ioos:station:SCCF:13:1,2014-12-06T21:00:00Z,26.5255,-82.0032,2.663,6.84,1111122 
SCCF RECON,ioos:station:SCCF:13:1,2014-12-06T22:00:00Z,26.5255,-82.0032,2.611,6.7,1111122 
SCCF RECON,ioos:station:SCCF:13:1,2014-12-06T23:00:00Z,26.5255,-82.0032,2.56,6.57,1111122 
SCCF RECON,ioos:station:SCCF:13:1,2014-12-07T00:00:00Z,26.5255,-82.0032,2.55,6.65,1111122 
SCCF RECON,ioos:station:SCCF:13:1,2014-12-07T01:00:00Z,26.5255,-82.0032,2.591,6.74,1111122 
SCCF RECON,ioos:station:SCCF:13:1,2014-12-07T02:00:00Z,26.5255,-82.0032,2.7,6.38,1111122 
SCCF RECON,ioos:station:SCCF:13:1,2014-12-07T03:00:00Z,26.5255,-82.0032,2.8,6.32,1111122 
SCCF RECON,ioos:station:SCCF:13:1,2014-12-07T04:00:00Z,26.5255,-82.0032,2.87,6.62,1111122 
SCCF RECON,ioos:station:SCCF:13:1,2014-12-07T05:00:00Z,26.5255,-82.0032,2.91,6.67,1111122 
SCCF RECON,ioos:station:SCCF:13:1,2014-12-07T06:00:00Z,26.5255,-82.0032,2.924,6.69,1111122 
SCCF RECON,ioos:station:SCCF:13:1,2014-12-07T07:00:00Z,26.5255,-82.0032,2.87,6.59,1111122 
SCCF RECON,ioos:station:SCCF:13:1,2014-12-07T08:00:00Z,26.5255,-82.0032,2.75,6.6,1111122 
SCCF RECON,ioos:station:SCCF:13:1,2014-12-07T09:00:00Z,26.5255,-82.0032,2.617,6.42,1111122 
SCCF RECON,ioos:station:SCCF:13:1,2014-12-07T10:00:00Z,26.5255,-82.0032,2.52,6.42,1111122 
SCCF RECON,ioos:station:SCCF:13:1,2014-12-07T11:00:00Z,26.5255,-82.0032,2.421,6.48,1111122 
SCCF RECON,ioos:station:SCCF:13:1,2014-12-07T12:00:00Z,26.5255,-82.0032,2.32,6.65,1111122 
SCCF RECON,ioos:station:SCCF:13:1,2014-12-07T13:00:00Z,26.5255,-82.0032,2.248,6.46,1111122 
SCCF RECON,ioos:station:SCCF:13:1,2014-12-07T14:00:00Z,26.5255,-82.0032,2.23,6.58,1111122 
SCCF RECON,ioos:station:SCCF:13:1,2014-12-07T15:00:00Z,26.5255,-82.0032,2.345,6.65,1111122 
SCCF RECON,ioos:station:SCCF:13:1,2014-12-07T16:00:00Z,26.5255,-82.0032,2.49,6.76,1111122 
SCCF RECON,ioos:station:SCCF:13:1,2014-12-07T17:00:00Z,26.5255,-82.0032,2.57,6.53,1111122 
SCCF RECON,ioos:station:SCCF:13:1,2014-12-07T18:00:00Z,26.5255,-82.0032,2.62,6.43,1111122 
SCCF RECON,ioos:station:SCCF:13:1,2014-12-07T19:00:00Z,26.5255,-82.0032,2.66,6.35,1111122 
SCCF RECON,ioos:station:SCCF:13:1,2014-12-07T20:00:00Z,26.5255,-82.0032,2.668,6.7,1111122 
SCCF RECON,ioos:station:SCCF:13:1,2014-12-07T21:00:00Z,26.5255,-82.0032,2.63,6.62,1111122 
SCCF RECON,ioos:station:SCCF:13:1,2014-12-07T22:00:00Z,26.5255,-82.0032,2.58,6.43,1111122 
SCCF RECON,ioos:station:SCCF:13:1,2014-12-07T23:00:00Z,26.5255,-82.0032,2.51,6.45,1111122 
SCCF RECON,ioos:station:SCCF:13:1,2014-12-08T00:00:00Z,26.5255,-82.0032,2.479,6.37,1111122 
SCCF RECON,ioos:station:SCCF:13:1,2014-12-08T01:00:00Z,26.5255,-82.0032,2.506,6.3,1111122 
SCCF RECON,ioos:station:SCCF:13:1,2014-12-08T02:00:00Z,26.5255,-82.0032,2.59,6.26,1111122 
SCCF RECON,ioos:station:SCCF:13:1,2014-12-08T03:00:00Z,26.5255,-82.0032,2.69,6.08,1111122 
SCCF RECON,ioos:station:SCCF:13:1,2014-12-08T04:00:00Z,26.5255,-82.0032,2.8,6.34,1111122 
SCCF RECON,ioos:station:SCCF:13:1,2014-12-08T05:00:00Z,26.5255,-82.0032,2.851,6.55,1111122 
SCCF RECON,ioos:station:SCCF:13:1,2014-12-08T06:00:00Z,26.5255,-82.0032,2.87,6.45,1111122 
SCCF RECON,ioos:station:SCCF:13:1,2014-12-08T07:00:00Z,26.5255,-82.0032,2.861,6.5,1111122 
SCCF RECON,ioos:station:SCCF:13:1,2014-12-08T08:00:00Z,26.5255,-82.0032,2.792,6.54,1111122 
SCCF RECON,ioos:station:SCCF:13:1,2014-12-08T09:00:00Z,26.5255,-82.0032,2.683,6.45,1111122 
SCCF RECON,ioos:station:SCCF:13:1,2014-12-08T10:00:00Z,26.5255,-82.0032,2.567,6.34,1111122 
SCCF RECON,ioos:station:SCCF:13:1,2014-12-08T11:00:00Z,26.5255,-82.0032,2.463,6.56,1111122 
SCCF RECON,ioos:station:SCCF:13:1,2014-12-08T12:00:00Z,26.5255,-82.0032,2.37,6.52,1111122 
SCCF RECON,ioos:station:SCCF:13:1,2014-12-08T13:00:00Z,26.5255,-82.0032,2.28,6.59,1111122 
SCCF RECON,ioos:station:SCCF:13:1,2014-12-08T14:00:00Z,26.5255,-82.0032,2.23,6.49,1111122 
SCCF RECON,ioos:station:SCCF:13:1,2014-12-08T15:00:00Z,26.5255,-82.0032,2.28,6.64,1111122 
SCCF RECON,ioos:station:SCCF:13:1,2014-12-08T16:00:00Z,26.5255,-82.0032,2.44,6.73,1111122 
SCCF RECON,ioos:station:SCCF:13:1,2014-12-08T17:00:00Z,26.5255,-82.0032,2.526,6.66,1111122 
SCCF RECON,ioos:station:SCCF:13:1,2014-12-08T18:00:00Z,26.5255,-82.0032,2.58,6.44,1111122 
SCCF RECON,ioos:station:SCCF:13:1,2014-12-08T19:00:00Z,26.5255,-82.0032,2.644,6.45,1111122 
SCCF RECON,ioos:station:SCCF:13:1,2014-12-08T20:00:00Z,26.5255,-82.0032,2.689,6.71,1111122 
SCCF RECON,ioos:station:SCCF:13:1,2014-12-08T21:00:00Z,26.5255,-82.0032,2.68,6.74,1111122 
SCCF RECON,ioos:station:SCCF:13:1,2014-12-08T22:00:00Z,26.5255,-82.0032,2.63,6.92,1111122 
SCCF RECON,ioos:station:SCCF:13:1,2014-12-08T23:00:00Z,26.5255,-82.0032,2.59,6.83,1111122 
SCCF RECON,ioos:station:SCCF:13:1,2014-12-09T00:00:00Z,26.5255,-82.0032,2.56,6.71,1111122 
SCCF RECON,ioos:station:SCCF:13:1,2014-12-09T01:00:00Z,26.5255,-82.0032,2.53,6.4,1111122 
SCCF RECON,ioos:station:SCCF:13:1,2014-12-09T02:00:00Z,26.5255,-82.0032,2.53,6.5,1111122 
SCCF RECON,ioos:station:SCCF:13:1,2014-12-09T03:00:00Z,26.5255,-82.0032,2.61,6.45,1111122 
SCCF RECON,ioos:station:SCCF:13:1,2014-12-09T04:00:00Z,26.5255,-82.0032,2.71,6.04,1111122 
SCCF RECON,ioos:station:SCCF:13:1,2014-12-09T05:00:00Z,26.5255,-82.0032,2.79,6.39,1111122 
SCCF RECON,ioos:station:SCCF:13:1,2014-12-09T06:00:00Z,26.5255,-82.0032,2.83,6.8,1111122 
SCCF RECON,ioos:station:SCCF:13:1,2014-12-09T07:00:00Z,26.5255,-82.0032,2.85,6.72,1111122 
SCCF RECON,ioos:station:SCCF:13:1,2014-12-09T08:00:00Z,26.5255,-82.0032,2.8,6.65,1111122 
SCCF RECON,ioos:station:SCCF:13:1,2014-12-09T09:00:00Z,26.5255,-82.0032,2.7,6.53,1111122 
SCCF RECON,ioos:station:SCCF:13:1,2014-12-09T10:00:00Z,26.5255,-82.0032,2.586,6.47,1111122 
SCCF RECON,ioos:station:SCCF:13:1,2014-12-09T11:00:00Z,26.5255,-82.0032,2.5,6.55,1111122 
SCCF RECON,ioos:station:SCCF:13:1,2014-12-09T12:00:00Z,26.5255,-82.0032,2.41,6.57,1111122 
SCCF RECON,ioos:station:SCCF:13:1,2014-12-09T13:00:00Z,26.5255,-82.0032,2.32,6.6,1111122 
SCCF RECON,ioos:station:SCCF:13:1,2014-12-09T14:00:00Z,26.5255,-82.0032,2.24,6.86,1111122 
SCCF RECON,ioos:station:SCCF:13:1,2014-12-09T15:00:00Z,26.5255,-82.0032,2.197,6.78,1111122 
SCCF RECON,ioos:station:SCCF:13:1,2014-12-09T16:00:00Z,26.5255,-82.0032,2.259,6.86,1111122 
SCCF RECON,ioos:station:SCCF:13:1,2014-12-09T17:00:00Z,26.5255,-82.0032,2.41,6.93,1111122 
SCCF RECON,ioos:station:SCCF:13:1,2014-12-09T18:00:00Z,26.5255,-82.0032,2.5,6.94,1111122 
SCCF RECON,ioos:station:SCCF:13:1,2014-12-09T19:00:00Z,26.5255,-82.0032,2.55,6.91,1111122 
SCCF RECON,ioos:station:SCCF:13:1,2014-12-09T20:00:00Z,26.5255,-82.0032,2.57,6.84,1111122 
SCCF RECON,ioos:station:SCCF:13:1,2014-12-09T21:00:00Z,26.5255,-82.0032,2.56,6.98,1111122 
SCCF RECON,ioos:station:SCCF:13:1,2014-12-09T22:00:00Z,26.5255,-82.0032,2.5,6.97,1111122 
SCCF RECON,ioos:station:SCCF:13:1,2014-12-09T23:00:00Z,26.5255,-82.0032,2.463,6.72,1111122 
SCCF RECON,ioos:station:SCCF:13:1,2014-12-10T00:00:00Z,26.5255,-82.0032,2.46,6.92,1111122 
SCCF RECON,ioos:station:SCCF:13:1,2014-12-10T01:00:00Z,26.5255,-82.0032,2.43,6.58,1111122 
SCCF RECON,ioos:station:SCCF:13:1,2014-12-10T02:00:00Z,26.5255,-82.0032,2.38,6.76,1111122 
SCCF RECON,ioos:station:SCCF:13:1,2014-12-10T03:00:00Z,26.5255,-82.0032,2.39,6.92,1111122 
SCCF RECON,ioos:station:SCCF:13:1,2014-12-10T04:00:00Z,26.5255,-82.0032,2.45,6.95,1111122 
SCCF RECON,ioos:station:SCCF:13:1,2014-12-10T05:00:00Z,26.5255,-82.0032,2.538,6.81,1111122 
SCCF RECON,ioos:station:SCCF:13:1,2014-12-10T06:00:00Z,26.5255,-82.0032,2.6,6.76,1111122 
SCCF RECON,ioos:station:SCCF:13:1,2014-12-10T07:00:00Z,26.5255,-82.0032,2.624,6.84,1111122 
SCCF RECON,ioos:station:SCCF:13:1,2014-12-10T08:00:00Z,26.5255,-82.0032,2.62,6.92,1111122 
SCCF RECON,ioos:station:SCCF:13:1,2014-12-10T09:00:00Z,26.5255,-82.0032,2.57,6.93,1111122 
SCCF RECON,ioos:station:SCCF:13:1,2014-12-10T10:00:00Z,26.5255,-82.0032,2.48,6.87,1111122 
SCCF RECON,ioos:station:SCCF:13:1,2014-12-10T11:00:00Z,26.5255,-82.0032,2.4,6.71,1111122 
SCCF RECON,ioos:station:SCCF:13:1,2014-12-10T12:00:00Z,26.5255,-82.0032,2.354,6.79,1111122 
SCCF RECON,ioos:station:SCCF:13:1,2014-12-10T13:00:00Z,26.5255,-82.0032,2.29,6.86,1111122 
SCCF RECON,ioos:station:SCCF:13:1,2014-12-10T14:00:00Z,26.5255,-82.0032,2.22,6.94,1111122 
SCCF RECON,ioos:station:SCCF:13:1,2014-12-10T15:00:00Z,26.5255,-82.0032,2.16,7.32,1111122 
SCCF RECON,ioos:station:SCCF:13:1,2014-12-10T16:00:00Z,26.5255,-82.0032,2.2,7.42,1111122 
SCCF RECON,ioos:station:SCCF:13:1,2014-12-10T17:00:00Z,26.5255,-82.0032,2.35,7.41,1111122 
SCCF RECON,ioos:station:SCCF:13:1,2014-12-10T18:00:00Z,26.5255,-82.0032,2.45,7.5,1111122 
SCCF RECON,ioos:station:SCCF:13:1,2014-12-10T19:00:00Z,26.5255,-82.0032,2.53,7.15,1111122 
SCCF RECON,ioos:station:SCCF:13:1,2014-12-10T20:00:00Z,26.5255,-82.0032,2.61,7.34,1111122 
SCCF RECON,ioos:station:SCCF:13:1,2014-12-10T21:00:00Z,26.5255,-82.0032,2.657,7.5,1111122 
SCCF RECON,ioos:station:SCCF:13:1,2014-12-10T22:00:00Z,26.5255,-82.0032,2.653,7.4,1111122 
SCCF RECON,ioos:station:SCCF:13:1,2014-12-10T23:00:00Z,26.5255,-82.0032,2.62,7.4,1111122 
SCCF RECON,ioos:station:SCCF:13:1,2014-12-11T00:00:00Z,26.5255,-82.0032,2.6,7.27,1111122 
SCCF RECON,ioos:station:SCCF:13:1,2014-12-11T01:00:00Z,26.5255,-82.0032,2.58,7.11,1111122 
SCCF RECON,ioos:station:SCCF:13:1,2014-12-11T02:00:00Z,26.5255,-82.0032,2.57,7.05,1111122 
SCCF RECON,ioos:station:SCCF:13:1,2014-12-11T03:00:00Z,26.5255,-82.0032,2.6,7.13,1111122 
SCCF RECON,ioos:station:SCCF:13:1,2014-12-11T04:00:00Z,26.5255,-82.0032,2.66,6.84,1111122 
SCCF RECON,ioos:station:SCCF:13:1,2014-12-11T05:00:00Z,26.5255,-82.0032,2.72,7.0,1111122 
SCCF RECON,ioos:station:SCCF:13:1,2014-12-11T06:00:00Z,26.5255,-82.0032,2.78,7.25,1111122 
SCCF RECON,ioos:station:SCCF:13:1,2014-12-11T07:00:00Z,26.5255,-82.0032,2.81,7.16,1111122 
SCCF RECON,ioos:station:SCCF:13:1,2014-12-11T08:00:00Z,26.5255,-82.0032,2.83,7.03,1111122 
SCCF RECON,ioos:station:SCCF:13:1,2014-12-11T09:00:00Z,26.5255,-82.0032,2.816,6.87,1111122 
SCCF RECON,ioos:station:SCCF:13:1,2014-12-11T10:00:00Z,26.5255,-82.0032,2.76,6.86,1111122 
SCCF RECON,ioos:station:SCCF:13:1,2014-12-11T11:00:00Z,26.5255,-82.0032,2.669,6.72,1111122 
SCCF RECON,ioos:station:SCCF:13:1,2014-12-11T12:00:00Z,26.5255,-82.0032,2.57,6.98,1111122 
SCCF RECON,ioos:station:SCCF:13:1,2014-12-11T13:00:00Z,26.5255,-82.0032,2.5,7.17,1111122 
SCCF RECON,ioos:station:SCCF:13:1,2014-12-11T14:00:00Z,26.5255,-82.0032,2.427,7.18,1111122 
SCCF RECON,ioos:station:SCCF:13:1,2014-12-11T15:00:00Z,26.5255,-82.0032,2.359,7.23,1111122 
SCCF RECON,ioos:station:SCCF:13:1,2014-12-11T16:00:00Z,26.5255,-82.0032,2.339,7.23,1111122 
SCCF RECON,ioos:station:SCCF:13:1,2014-12-11T17:00:00Z,26.5255,-82.0032,2.43,7.32,1111122 
SCCF RECON,ioos:station:SCCF:13:1,2014-12-11T18:00:00Z,26.5255,-82.0032,2.53,7.33,1111122 
SCCF RECON,ioos:station:SCCF:13:1,2014-12-11T19:00:00Z,26.5255,-82.0032,2.6,7.59,1111122 
SCCF RECON,ioos:station:SCCF:13:1,2014-12-11T20:00:00Z,26.5255,-82.0032,2.66,7.17,1111122 
SCCF RECON,ioos:station:SCCF:13:1,2014-12-11T21:00:00Z,26.5255,-82.0032,2.72,7.62,1111122 